Location: St. Louis
(38.6270°N, 90.1994°W)
Time: 18:12:42
(UTC-05:00)

ISS - Pass Details

Date: 16 August 2016
Orbit: 401 x 408 km, 51.6° (Epoch: 24 August)

Event Time Altitude Azimuth Distance (km) Brightness Sun altitude
Rises 21:00:29 0° 293° (WNW) 2,390 2.1 -12.9°
Reaches altitude 10° 21:03:08 10° 272° (W) 1,512 0.1 -13.4°
Maximum altitude 21:05:22 17° 231° (SW) 1,163 -1.3 -13.8°
Drops below altitude 10° 21:07:35 10° 189° (S) 1,491 -1.2 -14.1°
Enters shadow 21:08:04 - 183° (S) 1,629 -1.0 -14.2°
